Weather History for KHAI - December, 2008

Change the Weather History Date:

Monday, December 1, 2008

  Actual Average Record
Temperature  
Mean Temperature 32 °F -  
Max Temperature 33 °F 41 °F 60 °F (1962)
Min Temperature 30 °F 26 °F 5 °F (1955)
Degree Days  
Heating Degree Days 34    
Moisture  
Dew Point 31 °F    
Average Humidity 97    
Maximum Humidity 100    
Minimum Humidity 86    
Precipitation  
Precipitation 0.00 in - - ()
Sea Level Pressure  
Sea Level Pressure 29.40 in    
Wind  
Wind Speed 7 mph (WNW)    
Max Wind Speed 16 mph    
Max Gust Speed 23 mph    
Visibility 5 miles    
Events Snow    
Averages and records for this station are not official NWS values.
T = Trace of Precipitation, MM = Missing Value Source: NWS Daily Summary

Daily Weather History Graph

Daily Weather History Graph

Search for Another Location

Airport or City:

Trip Planner

Search our weather history database for the weather conditions in past years. The results will help you decide how hot, cold, wet, or windy it might be!

Date:

Astronomy

Dec. 01, 2008 Rise Set
Actual Time 7:51 AM EST 5:11 PM EST
Civil Twilight 7:20 AM EST 5:42 PM EST
Nautical Twilight 6:45 AM EST 6:17 PM EST
Astronomical Twilight 6:11 AM EST 6:51 PM EST
Moon 11:09 AM EST (12/1) 8:31 PM EST (12/1)
Length of Visible Light 10h 22m
Length of Day
9h 20m
Waxing Crescent, 14% of the Moon is Illuminated
Dec 1
Waxing Crescent
Dec 5
First Quarter
Dec 12
Full
Dec 19
Last Quarter
Dec 27
New

Hourly Weather History & Observations

Time (EST) Temp. Windchill Dew Point Humidity Pressure Visibility Wind Dir Wind Speed Gust Speed Precip Events Conditions
12:16 AM 32.0 °F 28.7 °F 32.0 °F 100% 29.18 in 1.5 mi SSW 3.5 mph - N/A Snow Light Snow
12:37 AM 32.0 °F 28.7 °F 32.0 °F 100% 29.18 in 1.8 mi SW 3.5 mph - N/A Snow Light Snow
12:55 AM 32.0 °F 27.5 °F 32.0 °F 100% 29.17 in 2.5 mi SW 4.6 mph - N/A Snow Light Snow
1:17 AM 32.0 °F 28.7 °F 32.0 °F 100% 29.17 in 2.5 mi SW 3.5 mph - N/A   Overcast
1:37 AM 32.0 °F 27.5 °F 32.0 °F 100% 29.17 in 2.5 mi SW 4.6 mph - N/A   Overcast
1:55 AM 32.0 °F 28.7 °F 32.0 °F 100% 29.17 in 2.5 mi SW 3.5 mph - N/A Snow Light Snow
2:17 AM 32.0 °F 27.5 °F 32.0 °F 100% 29.17 in 1.8 mi SW 4.6 mph - N/A Snow Light Snow
2:37 AM 32.0 °F 27.5 °F 32.0 °F 100% 29.17 in 2.5 mi SW 4.6 mph - N/A Snow Light Snow
2:55 AM 32.0 °F 28.7 °F 32.0 °F 100% 29.17 in 2.5 mi SW 3.5 mph - N/A Snow Light Snow
3:16 AM 32.0 °F 28.7 °F 32.0 °F 100% 29.18 in 4.0 mi SW 3.5 mph - N/A   Overcast
3:36 AM 32.0 °F 28.7 °F 32.0 °F 100% 29.17 in 4.0 mi WSW 3.5 mph - N/A   Overcast
3:55 AM 32.0 °F 27.5 °F 32.0 °F 100% 29.18 in 4.0 mi SW 4.6 mph - N/A Snow Light Snow
4:36 AM 32.0 °F 28.7 °F 32.0 °F 100% 29.18 in 3.0 mi WSW 3.5 mph - N/A Snow Light Snow
4:55 AM 32.0 °F 27.5 °F 32.0 °F 100% 29.18 in 2.5 mi WSW 4.6 mph - N/A Snow Light Snow
5:17 AM 32.0 °F 28.7 °F 32.0 °F 100% 29.18 in 2.5 mi West 3.5 mph - N/A Snow Light Snow
5:37 AM 32.0 °F - 32.0 °F 100% 29.19 in 3.0 mi Calm Calm - N/A Snow Light Snow
5:55 AM 32.0 °F 28.7 °F 32.0 °F 100% 29.20 in 2.5 mi WSW 3.5 mph - N/A Snow Light Snow
6:16 AM 32.0 °F 28.7 °F 32.0 °F 100% 29.20 in 2.5 mi West 3.5 mph - N/A Snow Light Snow
6:37 AM 32.0 °F 28.7 °F 32.0 °F 100% 29.21 in 2.0 mi West 3.5 mph - N/A Snow Light Snow
6:55 AM 32.0 °F 28.7 °F 32.0 °F 100% 29.22 in 2.5 mi West 3.5 mph - N/A Snow Light Snow
7:17 AM 32.0 °F 26.4 °F 32.0 °F 100% 29.22 in 2.0 mi WNW 5.8 mph - N/A Snow Light Snow
7:37 AM 32.0 °F 25.6 °F 32.0 °F 100% 29.23 in 4.0 mi NW 6.9 mph - N/A Snow Light Snow
7:55 AM 32.0 °F 25.6 °F 32.0 °F 100% 29.24 in 4.0 mi NW 6.9 mph - N/A Snow Light Snow
8:17 AM 32.0 °F 25.6 °F 32.0 °F 100% 29.25 in 1.5 mi NW 6.9 mph - N/A Snow Light Snow
8:37 AM 32.0 °F 25.6 °F 32.0 °F 100% 29.27 in 2.0 mi WNW 6.9 mph - N/A Snow Light Snow
8:55 AM 32.0 °F 25.6 °F 32.0 °F 100% 29.27 in 2.5 mi NW 6.9 mph - N/A Snow Light Snow
9:17 AM 32.0 °F 25.6 °F 32.0 °F 100% 29.29 in 1.2 mi NW 6.9 mph - N/A Snow Light Snow
9:36 AM 32.0 °F 24.8 °F 32.0 °F 100% 29.29 in 2.0 mi NW 8.1 mph - N/A Snow Light Snow
9:55 AM 32.0 °F 23.6 °F 32.0 °F 100% 29.30 in 5.0 mi NW 10.4 mph - N/A Snow Light Snow
10:17 AM 32.0 °F 24.2 °F 32.0 °F 100% 29.32 in 4.0 mi NW 9.2 mph - N/A Snow Light Snow
10:37 AM 32.0 °F 25.6 °F 32.0 °F 100% 29.33 in 5.0 mi WNW 6.9 mph - N/A Snow Light Snow
10:55 AM 32.0 °F 24.8 °F 32.0 °F 100% 29.35 in 10.0 mi WNW 8.1 mph - N/A   Overcast
11:17 AM 32.0 °F 23.0 °F 32.0 °F 100% 29.36 in 10.0 mi NW 11.5 mph - N/A   Overcast
11:37 AM 32.0 °F 23.6 °F 32.0 °F 100% 29.37 in 10.0 mi WNW 10.4 mph - N/A   Overcast
11:55 AM 32.0 °F 24.8 °F 32.0 °F 100% 29.38 in 10.0 mi NW 8.1 mph - N/A   Overcast
12:16 PM 33.8 °F 26.4 °F 32.0 °F 93% 29.39 in 10.0 mi WNW 9.2 mph - N/A   Overcast
12:37 PM 33.8 °F 25.3 °F 32.0 °F 93% 29.39 in 10.0 mi NW 11.5 mph - N/A   Overcast
12:55 PM 33.8 °F 25.3 °F 32.0 °F 93% 29.40 in 10.0 mi WNW 11.5 mph 16.1 mph N/A   Overcast
1:17 PM 33.8 °F 24.8 °F 32.0 °F 93% 29.42 in 10.0 mi NW 12.7 mph 19.6 mph N/A   Overcast
1:37 PM 33.8 °F 25.3 °F 30.2 °F 87% 29.43 in 10.0 mi WNW 11.5 mph 19.6 mph N/A   Overcast
1:55 PM 33.8 °F 24.3 °F 30.2 °F 87% 29.45 in 10.0 mi WNW 13.8 mph - N/A   Overcast
2:17 PM 33.8 °F 24.8 °F 32.0 °F 93% 29.46 in 10.0 mi WNW 12.7 mph - N/A   Overcast
2:37 PM 33.8 °F 26.4 °F 32.0 °F 93% 29.48 in 3.0 mi NW 9.2 mph - N/A Snow Light Snow
2:55 PM 32.0 °F 24.2 °F 32.0 °F 100% 29.49 in 0.5 mi WNW 9.2 mph - N/A Snow Snow
3:17 PM 32.0 °F 24.2 °F 32.0 °F 100% 29.52 in 0.5 mi NNW 9.2 mph 16.1 mph N/A Snow Snow
3:37 PM 32.0 °F 23.0 °F 32.0 °F 100% 29.53 in 0.8 mi WNW 11.5 mph 16.1 mph N/A Snow Light Snow
3:55 PM 32.0 °F 21.6 °F 32.0 °F 100% 29.55 in 2.0 mi WNW 15.0 mph 23.0 mph N/A Snow Light Snow
4:17 PM 32.0 °F 22.5 °F 32.0 °F 100% 29.57 in 1.2 mi WNW 12.7 mph 21.9 mph N/A Snow Light Snow
4:37 PM 32.0 °F 21.6 °F 32.0 °F 100% 29.59 in 1.0 mi WNW 15.0 mph - N/A Snow Light Snow
4:55 PM 32.0 °F 21.2 °F 32.0 °F 100% 29.60 in 1.0 mi WNW 16.1 mph 23.0 mph N/A Snow Light Snow
5:17 PM 32.0 °F 22.5 °F 30.2 °F 93% 29.62 in 1.8 mi WNW 12.7 mph 19.6 mph N/A Snow Light Snow
5:37 PM 32.0 °F 22.5 °F 30.2 °F 93% 29.64 in 2.0 mi WNW 12.7 mph - N/A Snow Light Snow
5:55 PM 32.0 °F 22.5 °F 30.2 °F 93% 29.65 in 4.0 mi WNW 12.7 mph - N/A Snow Light Snow
6:17 PM 32.0 °F 22.1 °F 30.2 °F 93% 29.66 in 5.0 mi WNW 13.8 mph 21.9 mph N/A Snow Light Snow
6:37 PM 30.2 °F 20.2 °F 30.2 °F 100% 29.68 in 7.0 mi WNW 12.7 mph - N/A Snow Light Snow
6:55 PM 30.2 °F 21.3 °F 28.4 °F 93% 29.70 in 7.0 mi WNW 10.4 mph - N/A Snow Light Snow
7:16 PM 30.2 °F 21.9 °F 28.4 °F 93% 29.71 in 5.0 mi WNW 9.2 mph - N/A Snow Light Snow
7:37 PM 30.2 °F 21.3 °F 30.2 °F 100% 29.72 in 3.0 mi West 10.4 mph - N/A Snow Light Snow
7:55 PM 30.2 °F 21.3 °F 28.4 °F 93% 29.73 in 5.0 mi WNW 10.4 mph 21.9 mph N/A Snow Light Snow
8:17 PM 30.2 °F 20.8 °F 28.4 °F 93% 29.74 in 10.0 mi West 11.5 mph 15.0 mph N/A Snow Light Snow
8:37 PM 30.2 °F 21.3 °F 28.4 °F 93% 29.75 in 10.0 mi West 10.4 mph - N/A   Overcast
8:55 PM 30.2 °F 19.3 °F 28.4 °F 93% 29.76 in 10.0 mi West 15.0 mph 21.9 mph N/A   Overcast
9:17 PM 30.2 °F 19.3 °F 26.6 °F 86% 29.78 in 10.0 mi West 15.0 mph - N/A Snow Light Snow
9:37 PM 30.2 °F 19.8 °F 26.6 °F 86% 29.79 in 10.0 mi West 13.8 mph 18.4 mph N/A Snow Light Snow
9:55 PM 30.2 °F 20.2 °F 24.8 °F 80% 29.80 in 10.0 mi West 12.7 mph 20.7 mph N/A Snow Light Snow
10:17 PM 30.2 °F 20.8 °F 24.8 °F 80% 29.81 in 10.0 mi West 11.5 mph 18.4 mph N/A Snow Light Snow
10:37 PM 30.2 °F 21.9 °F 23.0 °F 75% 29.82 in 10.0 mi WSW 9.2 mph - N/A Snow Light Snow
10:55 PM 30.2 °F 23.4 °F 23.0 °F 75% 29.82 in 10.0 mi West 6.9 mph - N/A   Overcast
11:17 PM 28.4 °F 19.1 °F 24.8 °F 86% 29.83 in 10.0 mi WSW 10.4 mph - N/A Snow Light Snow
11:37 PM 28.4 °F 19.7 °F 24.8 °F 86% 29.84 in 7.0 mi WSW 9.2 mph - N/A Snow Light Snow
11:55 PM 28.4 °F 19.7 °F 24.8 °F 86% 29.84 in 7.0 mi WSW 9.2 mph - N/A Snow Light Snow